ARIANE 5 DEB, 43383

Orbit data source: Space-Track

ARIANE 5 DEB, 43383 is space debris in HEO originally from a launch on Thu, 12 Jun 2008 UTC launched from the French Guiana (FRGUI). Debris objects in space refer to the collection of defunct objects orbiting the Earth. Examples of debris include non-operational satellites, rocket bodies, and fragments generated from explosions, collisions, or faulty payload assembly.

Loading next visibility...
Identifier
43383, 2008-030F
Orbit
HEO
Country
Flag of FRFR
Related business
Manufacturer
Thales Alenia
Mission
Spacecraft
Bus & Motor
Unknown
Mass
Unknown
Launch date (UTC)
2008-06-12 (17 years ago)
Launch vehicle
Unknown
Launch site
French Guiana (FRGUI)
Object type
Payload
Rocket body
Debris
Shape & HBR
Unknown shape, 1.1 m
Radar Cross Section
Medium (>0.1 m² and <1 m²)

Expand to show TLE details & history
Last TLE update: 10 hours ago

TLE from 10 hours ago
0 ARIANE 5 DEB
1 43383U 08030F   25289.03591090  .00018227  00000-0  81235-1 0  9995
2 43383   2.1177 116.0316 6906821  45.7222 353.6050  2.62925246142145
Epoch: 2025-10-16T00:51Z
TLE epoch observation values (Epoch: 2025-10-16T00:51:42.701Z)
Latitude
0.00001°
Longitude
78.78091°
Altitude
1,419.071 km
Speed
9.179 km/s
True Right ascension
07h 46m 02s
True Declination
0° 00' 00"
Sunlit
Object was in daylight at epoch
Visualization orbit readout
Latitude
Unknown
Longitude
Unknown
Altitude
Unknown
Speed
Unknown
Apparent Right ascension
Unknown
Apparent Declination
Unknown
Sunlit
N/A
Visualization observer readout
Local Sidereal Time
05:42:33
Azimuth
Unknown
Elevation
Unknown
Doppler factor
Unknown
Orbital elements
Apogee altitude
31,120.187 km
Perigee altitude
482.35 km
Semi-major axis
22,179.406 km
Eccentricity
0.69068
Inclination
2.1177°
RAAN
116.0316°
Arg. of periapsis
45.7222°
True anomaly
315.60641°
Mean anomaly
353.605°
Eccentric anomaly
340.20019°
Mean motion
0.65708 °/min
Orbital period
547.88 mins
BSTAR
0.081235
Loading maneuver chart data...
Computing Atmospheric mass density...
Loading historical data...
Loading historical data...
Loading historical data...
Loading historical data...
Loading historical data...
Loading historical data...
Loading historical data...

Documentation

Showing up to 5 results
|